Location: Montreal
(45.5087°N, 73.5540°W)
Time: 07:57:51
(UTC-04:00)

X-37B - Visible Passes

Search period start: 28 September 2021 00:00
Search period end: 08 October 2021 00:00
Orbit: 381 x 393 km, 45.0° (Epoch: 29 August)

Date Brightness Start Highest point End Pass type
(mag) Time Alt. Az. Time Alt. Az. Time Alt. Az.
28 Sep 2.4 04:34:46 31° E 04:34:46 31° E 04:36:35 10° E visible
28 Sep 0.6 06:07:03 11° W 06:10:01 72° S 06:13:11 10° ESE visible
29 Sep 0.4 05:11:21 70° WSW 05:11:39 83° S 05:14:48 10° E visible
30 Sep 3.6 04:15:41 16° E 04:15:41 16° E 04:16:25 10° E visible
30 Sep 0.8 05:47:59 21° W 05:49:50 55° SSW 05:52:57 10° ESE visible
01 Oct 1.6 04:52:23 42° ESE 04:52:23 42° ESE 04:54:39 10° ESE visible
02 Oct 1.2 05:29:10 35° SW 05:29:37 38° SSW 05:32:34 10° SE visible
03 Oct 3.3 04:33:44 15° ESE 04:33:44 15° ESE 04:34:24 10° ESE visible
03 Oct 2.5 06:06:03 12° WSW 06:07:31 16° SSW 06:09:31 10° S visible
04 Oct 2.7 05:10:44 18° SSE 05:10:44 18° SSE 05:11:59 10° SSE visible
